User: anonymous   Login
Location: Unspecified
(0.0000°N, 0.0000°E)
Time: 19:59:27
(UTC+00:00)
Language:

DNEPR OBJECT AF - Orbit

View from above orbital plane
View from above orbital plane
View from above satellite
View from above satellite

Ground track
Ground track

The orbit data is extracted from the following two-line orbital elements,

1 39445U 13066AF  17144.69832554 +.00000332 +00000-0 +47996-4 0  9997
2 39445 097.6341 189.0503 0058036 345.7616 014.1959 14.81302154187517
Epoch (UTC): 24 May 2017 16:45:35
Eccentricity: 0.0058036
inclination: 97.6341°
perigee height: 584 km
apogee height: 666 km
right ascension of ascending node: 189.0503°
argument of perigee: 345.7616°
revolutions per day: 14.81302154
mean anomaly at epoch: 14.1959°
orbit number at epoch: 18751

The dashed part of the orbit path shows where the satellite is in the earth's shadow,  

DLR